User: anonymous   Login
Location: Unspecified
(0.0000°N, 0.0000°E)
Time: 13:00:02
(UTC+00:00)
Language:

Tiungsat 1 - Orbit

View from above orbital plane
View from above orbital plane
View from above satellite
View from above satellite

Ground track
Ground track

The orbit data is extracted from the following two-line orbital elements,

1 26548U 00057D   21015.90703370 -.00000013  00000-0  15165-4 0  9992
2 26548  64.5496 231.8160 0030053 222.0433 137.8370 14.89543615100768
Epoch (UTC): 15 January 2021 21:46:07
Eccentricity: 0.0030053
inclination: 64.5496°
perigee height: 578 km
apogee height: 620 km
right ascension of ascending node: 231.8160°
argument of perigee: 222.0433°
revolutions per day: 14.89543615
mean anomaly at epoch: 137.8370°
orbit number at epoch: 10076

The dashed part of the orbit path shows where the satellite is in the earth's shadow,  

DLR